501P/Rankin (2014)

Japanese version
Home page
Updated on June 14, 2025

---------------------------------------------------------------------

* Profile

Designation 501P/2014 N4

* Orbital Elements

                    Epoch = 2014 Apr. 13.0 TT
     T = 2014 Apr.  4.02342 TT        Peri. =  52.64506
     e = 0.6939088                    Node  = 140.65818 2000.0
     q = 0.6842515 AU                 Incl. =  10.12753
       a =  2.2354498 AU   n = 0.29488772   P =   3.34 years

* Magnitudes Graph

        H = 19.5  G = 0.15

---------------------------------------------------------------------

The orbital elements are printed on CBET 5520.
The magnitudes graphs are made with Comet for Windows.

---------------------------------------------------------------------

Copyright(C) Seiichi Yoshida (comet@aerith.net). All rights reserved.